Regional Weather Roundup
Issued by NWS Jackson, KY

Home | Current Version | Previous Version | Graphics & Text | Print | Product List | Glossary On
Versions: 1 2 3 4 5 6 7 8 9 10 11 12 13 14 15 16 17 18 19 20 21 22 23 24 25 26 27 28
000
ASUS43 KJKL 290510
RWRJKL

EAST KENTUCKY HOURLY WEATHER ROUNDUP
NATIONAL WEATHER SERVICE JACKSON KY
100 AM EDT FRI JUL 29 2016

NOTE: "FAIR" INDICATES FEW OR NO CLOUDS BELOW 12,000 FEET WITH
NO SIGNIFICANT WEATHER AND/OR OBSTRUCTIONS TO VISIBILITY.

* THESE REPORTS ARE NOT UNDER NWS QUALITY CONTROL AND MAY NOT
  REPORT WEATHER SUCH AS PRECIPITATION AND FOG.

KYZ079-080-083-085-087-088-110-112-115-119-120-290600
...EASTERN KENTUCKY...

CITY           SKY/WX    TMP DP  RH WIND       PRES   REMARKS
JACKSON        FOG       70  69  97 CALM      29.98R VSB 1/2
LONDON         FOG       69  67  93 SW3       29.98R VSB 1/4
SOMERSET*      CLOUDY    68  68 100 CALM      29.98S FOG
MONTICELLO*    MOCLDY   N/A N/A N/A VRB6      29.99S
WILLIAMSBURG*  CLEAR     68  68 100 CALM      29.99R
MIDDLESBORO*   CLOUDY    69  69 100 CALM      30.00R
HARLAN APT*    CLOUDY    70  68  94 CALM      30.01R
PIKE CO APT*   FOG       69  69 100 SW3       29.97S VSB 1
BIG SANDY APT* CLOUDY    70  70 100 CALM      29.96S
MOREHEAD APT*  CLOUDY    72  70  94 SW3       29.97R FOG
ASHLAND*       CLOUDY    72  70  94 SW3       29.91R
$$

KYZ035-036-041-042-044-050-067-078-099-290600
...CENTRAL KENTUCKY...

CITY           SKY/WX    TMP DP  RH WIND       PRES   REMARKS
MT STERLING*   PTCLDY    70  70 100 SW5       29.97S
FLEMING/MASON* CLEAR     70  70  99 SW5       29.95S FOG
DANVILLE*      CLEAR     70  68  94 SW3       29.97S
LEXINGTON      PTCLDY    72  70  93 S5        29.95R
FRANKFORT      PTCLDY    74  70  87 SW5       29.93R
LOUISVILLE     CLOUDY    78  72  81 SW6       29.90F
LEBANON*         N/A     73  72  94 S7        29.95F
GLASGOW*       PTCLDY    73  73 100 CALM      29.95S
BOWLING GREEN  CLOUDY    77  73  87 CALM      29.93F
$$

KYZ091>093-OHZ055-061-077-WVZ005-015-034-035-042-290600
...SOUTHERN OHIO/WEST VIRGINIA...

CITY           SKY/WX    TMP DP  RH WIND       PRES   REMARKS
COVINGTON      PTCLDY    74  73  97 SW6       29.92S
COLUMBUS       FOG       71  71 100 CALM      29.90F VSB 1/4
DAYTON         PTCLDY    72  66  81 CALM      29.93R
WILMINGTON     CLEAR     71  70  96 SW6       29.92S
HUNTINGTON     FOG       71  70  96 SW3       29.93R VSB 3/4
CHARLESTON     MOCLDY    70  68  93 W3        29.93S FOG
PINEVILLE*     CLOUDY    70  67  89 MISG      30.02S
BECKLEY        MOCLDY    67  65  93 W7        30.00R
BLUEFIELD      CLOUDY    66  65  96 W8        30.02S
LOGAN CO APT*  CLOUDY    70  70 100 CALM      29.96R
$$

VAZ002-007-008-TNZ017-027-036-066-071-290600
...SOUTHWEST VIRGINIA/EAST TENNESSEE...

CITY           SKY/WX    TMP DP  RH WIND       PRES   REMARKS
WISE*          CLOUDY    68  66  94 W5        30.05R
JONESVILLE*    MOCLDY    70  68  94 CALM      30.02R
ABINGDON*      CLOUDY    71  70  99 W3        30.01R
BRISTOL        CLOUDY    71  68  90 SW6       29.99R
MORRISTOWN*    PTCLDY    72  72 100 W6        29.99S
SEVIERVILLE*   CLOUDY    73  70  88 CALM      29.98S
KNOXVILLE      CLOUDY    74  72  93 SW8       29.97S
OAK RIDGE      PTCLDY    73  70  90 CALM      29.99S
CROSSVILLE     CLOUDY    70  70 100 CALM      30.03F FOG
NASHVILLE      MOCLDY    77  73  87 S6        29.96S
$$

...KEY TO REMARKS...
VSB - VISIBILITY IN MILES
WCI - WIND CHILL INDEX
HX  - HEAT INDEX

$$




USA.gov is the U.S. government's official web portal to all federal, state and local government web resources and services.